Home > Weather > Karlsruhe > Past weeks

Flag for Germany Past Weather in Karlsruhe, Baden-Württemberg, Germany — Yesterday and Last 2 Weeks

Now
52 °F

Passing clouds.


Feels Like: 51 °F
Forecast: 53 / 71 °F
Wind: 5 mph from South

Location: Karlsruhe - Baden Wurttemberg

Current Time: Jun 26, 2016 at 6:51:19 AM

Latest Report: Jun 26, 2016 at 5:50 AM


Visibility: N/A

Pressure: 30.09 "Hg

Humidity: 100%

Dew Point: 52 °F

Location of KarlsruheLocation

Past Weather in Karlsruhe — Graph

°F

Karlsruhe Temperature Yesterday

Maximum temperature yesterday: 77 °F (at 1:20 PM)
Minimum temperature yesterday: 57 °F (at 11:50 PM)
Average temperature yesterday: 68 °F

High & Low Weather Summary for the Past Weeks

 TemperatureHumidityPressure
High91 °F (Jun 23, 4:20 PM)100% (Jun 11, 9:50 PM)30.27 "Hg (Jun 11, 9:50 PM)
Low50 °F (Jun 20, 4:50 AM)38% (Jun 23, 5:50 PM)29.56 "Hg (Jun 14, 11:50 AM)
Average66 °F80%29.92 "Hg
* Reported Jun 11 5:20 AM — Jun 26 5:20 AM, Karlsruhe, Weather by CustomWeather, © 2016

Note: Actual official high and low records may vary slightly from our data, if they occured in-between our weather recording intervals... More about our weather records

Advertising

Karlsruhe Weather History for the Previous 24 Hours

Scroll right to see more
 ConditionsComfort  
Time TempWeatherWind HumidityBarometerVisibility
5:20 AM
Sun, Jun 26
54 °FFog.2 mph100%30.09 "HgN/A
4:50 AM54 °FFog.No wind94%30.09 "HgN/A
2:20 AM55 °FPassing clouds.2 mph100%30.09 "HgN/A
1:50 AM55 °FPassing clouds.3 mph94%30.09 "HgN/A
1:20 AM55 °FPassing clouds.5 mph94%30.09 "HgN/A
12:50 AM55 °FClear.6 mph100%30.09 "Hg6 mi
12:20 AM55 °FPassing clouds.6 mph94%30.09 "Hg6 mi
11:50 PM
Sat, Jun 25
57 °FPassing clouds.6 mph88%30.09 "Hg6 mi
10:50 PM61 °FPassing clouds.8 mph88%30.09 "Hg5 mi
10:20 PM63 °FPartly sunny.6 mph88%30.07 "Hg5 mi
9:50 PM63 °FBroken clouds.5 mph88%30.07 "Hg5 mi
9:20 PM64 °FScattered clouds.7 mph83%30.04 "Hg6 mi
8:50 PM64 °FBroken clouds.7 mph83%30.04 "HgN/A
8:20 PM66 °FScattered clouds.8 mph83%30.01 "HgN/A
7:50 PM68 °FBroken clouds.8 mph78%30.01 "HgN/A
7:20 PM68 °FBroken clouds.6 mph78%30.01 "Hg5 mi
6:50 PM68 °FBroken clouds.7 mph78%29.98 "Hg5 mi
6:20 PM68 °FBroken clouds.7 mph83%29.98 "Hg5 mi
5:50 PM66 °FLight rain. Broken clouds.5 mph94%29.98 "Hg5 mi
5:20 PM66 °FScattered showers. Broken clouds.12 mph94%29.98 "Hg5 mi
4:50 PM66 °FScattered showers. Broken clouds.10 mph94%29.98 "Hg5 mi
4:20 PM66 °FRain. Broken clouds.8 mph94%29.98 "Hg5 mi
3:50 PM64 °FSprinkles. Broken clouds.9 mph94%29.98 "Hg5 mi
3:01 PM64 °FSprinkles. Broken clouds.9 mph100%29.92 "Hg3 mi
2:55 PM64 °FSprinkles. Broken clouds.10 mph100%29.92 "Hg2 mi
2:20 PM73 °FThundershowers. Broken clouds.8 mph74%29.89 "Hg5 mi
1:50 PM75 °FScattered showers. Broken clouds.6 mph69%29.89 "HgN/A
1:20 PM77 °FBroken clouds.5 mph65%29.92 "HgN/A
12:50 PM73 °FPartly sunny.3 mph78%29.92 "HgN/A
12:20 PM73 °FBroken clouds.3 mph78%29.92 "HgN/A
11:50 AM73 °FBroken clouds.3 mph74%29.92 "HgN/A
11:20 AM73 °FBroken clouds.3 mph74%29.92 "HgN/A
10:50 AM73 °FScattered clouds.8 mph78%29.92 "HgN/A
10:20 AM73 °FScattered clouds.12 mph78%29.95 "HgN/A
9:50 AM72 °FScattered clouds.14 mph83%29.95 "HgN/A
9:20 AM70 °FBroken clouds.9 mph88%29.95 "HgN/A
8:50 AM72 °FScattered showers. Partly sunny.15 mph88%29.92 "HgN/A
8:20 AM70 °FBroken clouds.6 mph94%29.92 "HgN/A
7:50 AM68 °FSprinkles. Broken clouds.5 mph94%29.92 "HgN/A
7:20 AM66 °FSprinkles. Broken clouds.6 mph100%29.92 "HgN/A
6:50 AM66 °FSprinkles. Broken clouds.3 mph100%29.95 "HgN/A
6:20 AM66 °FPassing clouds.7 mph100%29.95 "HgN/A
Weather by CustomWeather, © 2016

See weather overviewHow to use our weather pages